Year,Month,Day,Hour,Minute,Value (Times are PST for temperature in C)
2006,02,14,00,00,3.70
2006,02,14,00,01,3.70
2006,02,14,00,02,3.80
2006,02,14,00,03,3.80
2006,02,14,00,04,3.80
2006,02,14,00,05,3.70
2006,02,14,00,06,3.70
2006,02,14,00,07,3.70
2006,02,14,00,08,3.70
2006,02,14,00,09,3.60
2006,02,14,00,10,3.50
2006,02,14,00,11,3.50
2006,02,14,00,12,3.50
2006,02,14,00,13,3.50
2006,02,14,00,14,3.50
2006,02,14,00,15,3.50
2006,02,14,00,16,3.50
2006,02,14,00,17,3.50
2006,02,14,00,18,3.50
2006,02,14,00,19,3.50
2006,02,14,00,20,3.50
2006,02,14,02,17,0.90
2006,02,14,02,18,0.90
2006,02,14,02,19,0.90
2006,02,14,02,20,0.90
2006,02,14,02,21,0.80
2006,02,14,02,22,0.80
2006,02,14,02,23,0.80
2006,02,14,02,24,0.80
2006,02,14,02,25,0.80
2006,02,14,02,26,0.80
2006,02,14,02,27,0.80
2006,02,14,02,28,0.80
2006,02,14,02,29,0.80
2006,02,14,02,30,0.80
2006,02,14,02,31,0.80
2006,02,14,02,32,0.70
2006,02,14,02,33,0.70
2006,02,14,02,34,0.60
2006,02,14,02,35,0.60
2006,02,14,02,36,0.60
2006,02,14,02,37,0.60
2006,02,14,02,38,0.60
2006,02,14,02,39,0.60
2006,02,14,02,40,0.70
2006,02,14,02,41,0.70
2006,02,14,02,42,0.70
2006,02,14,02,43,0.70
2006,02,14,02,44,0.70
2006,02,14,02,45,0.70
2006,02,14,02,46,0.70
2006,02,14,02,47,0.70
2006,02,14,02,48,0.60
2006,02,14,02,49,0.60
2006,02,14,02,50,0.60
2006,02,14,02,51,0.60
2006,02,14,02,52,0.50
2006,02,14,02,53,0.50
2006,02,14,02,54,0.50
2006,02,14,02,55,0.40
2006,02,14,02,56,0.40
2006,02,14,02,57,0.40
2006,02,14,02,58,0.40
2006,02,14,02,59,0.40
2006,02,14,03,00,0.40
2006,02,14,03,01,0.40
2006,02,14,03,02,0.40
2006,02,14,03,03,0.40
2006,02,14,03,04,0.40
2006,02,14,03,05,0.40
2006,02,14,03,06,0.40
2006,02,14,03,07,0.40
2006,02,14,03,08,0.40
2006,02,14,03,09,0.40
2006,02,14,03,10,0.40
2006,02,14,03,11,0.40
2006,02,14,03,12,0.40
2006,02,14,03,13,0.30
2006,02,14,03,14,0.30
2006,02,14,03,15,0.20
2006,02,14,03,16,0.20
2006,02,14,03,17,0.20
2006,02,14,03,18,0.20
2006,02,14,03,19,0.10
2006,02,14,03,20,0.10
2006,02,14,03,21,0.10
2006,02,14,03,22,0.10
2006,02,14,03,23,0.10
2006,02,14,03,24,0.10
2006,02,14,03,25,0.10
2006,02,14,03,26,0.10
2006,02,14,03,27,0.10
2006,02,14,03,28,0.10
2006,02,14,03,29,0.10
2006,02,14,03,30,0.10
2006,02,14,03,31,0.10
2006,02,14,03,32,0.10
2006,02,14,03,33,0.10
2006,02,14,03,34,0.10
2006,02,14,03,35,0.10
2006,02,14,03,36,0.10
2006,02,14,03,37,0.10
2006,02,14,03,38,0.10
2006,02,14,03,39,0.20
2006,02,14,03,40,0.30
2006,02,14,03,41,0.30
2006,02,14,03,42,0.30
2006,02,14,03,43,0.30
2006,02,14,03,44,0.30
2006,02,14,03,45,0.30
2006,02,14,03,46,0.30
2006,02,14,03,47,0.20
2006,02,14,03,48,0.10
2006,02,14,03,49,0.10
2006,02,14,03,50,0.10
2006,02,14,03,51,0.10
2006,02,14,03,52,-0.10
2006,02,14,03,53,-0.10
2006,02,14,03,54,-0.10
2006,02,14,03,55,-0.10
2006,02,14,03,56,-0.10
2006,02,14,03,57,-0.10
2006,02,14,03,58,-0.10
2006,02,14,03,59,-0.10
2006,02,14,04,00,-0.10
2006,02,14,04,01,-0.10
2006,02,14,04,02,0.00
2006,02,14,04,03,0.10
2006,02,14,04,04,0.10
2006,02,14,04,05,0.10
2006,02,14,04,06,0.10
2006,02,14,04,07,0.40
2006,02,14,04,08,0.40
2006,02,14,04,09,0.40
2006,02,14,04,10,0.40
2006,02,14,04,11,0.40
2006,02,14,04,12,0.40
2006,02,14,04,13,0.40
2006,02,14,04,14,0.40
2006,02,14,04,15,0.60
2006,02,14,04,16,0.90
2006,02,14,04,17,1.00
2006,02,14,04,18,1.10
2006,02,14,04,19,1.10
2006,02,14,04,20,1.20
2006,02,14,04,21,1.20
2006,02,14,04,22,1.20
2006,02,14,04,23,1.20
2006,02,14,04,24,1.20
2006,02,14,04,25,1.20
2006,02,14,04,26,1.20
2006,02,14,04,27,1.10
2006,02,14,04,28,1.10
2006,02,14,04,29,1.10
2006,02,14,04,30,1.10
2006,02,14,04,31,1.10
2006,02,14,04,32,1.10
2006,02,14,04,33,1.20
2006,02,14,04,34,1.20
2006,02,14,04,35,1.20
2006,02,14,04,36,1.30
2006,02,14,04,37,1.30
2006,02,14,04,38,1.30
2006,02,14,04,39,1.30
2006,02,14,04,40,1.30
2006,02,14,04,41,1.30
2006,02,14,04,42,1.30
2006,02,14,04,43,1.30
2006,02,14,04,44,1.20
2006,02,14,04,45,1.20
2006,02,14,04,46,1.20
2006,02,14,04,47,1.20
2006,02,14,04,48,1.20
2006,02,14,04,49,1.10
2006,02,14,04,50,1.10
2006,02,14,04,51,1.00
2006,02,14,04,52,1.00
2006,02,14,04,53,0.80
2006,02,14,04,54,0.80
2006,02,14,04,55,0.80
2006,02,14,04,56,0.70
2006,02,14,04,57,0.70
2006,02,14,04,58,0.70
2006,02,14,04,59,0.60
2006,02,14,05,00,0.60
2006,02,14,05,01,0.60
2006,02,14,05,02,0.60
2006,02,14,05,03,0.50
2006,02,14,05,04,0.50
2006,02,14,05,05,0.50
2006,02,14,05,06,0.40
2006,02,14,05,07,0.40
2006,02,14,05,08,0.40
2006,02,14,05,09,0.40
2006,02,14,05,10,0.40
2006,02,14,05,11,0.20
2006,02,14,05,12,0.20
2006,02,14,05,13,0.20
2006,02,14,05,14,0.10
2006,02,14,05,15,0.10
2006,02,14,05,16,0.10
2006,02,14,05,17,0.10
2006,02,14,05,18,0.10
2006,02,14,05,19,0.00
2006,02,14,05,20,-0.10
2006,02,14,05,21,-0.10
2006,02,14,05,22,-0.10
2006,02,14,05,23,-0.10
2006,02,14,05,24,-0.20
2006,02,14,05,25,-0.20
2006,02,14,05,26,-0.20
2006,02,14,05,27,-0.30
2006,02,14,05,28,-0.30
2006,02,14,05,29,-0.30
2006,02,14,05,30,-0.30
2006,02,14,05,31,-0.30
2006,02,14,05,32,-0.30
2006,02,14,05,33,-0.30
2006,02,14,05,34,-0.30
2006,02,14,05,35,-0.40
2006,02,14,05,36,-0.40
2006,02,14,05,37,-0.40
2006,02,14,05,38,-0.40
2006,02,14,05,39,-0.40
2006,02,14,05,40,-0.40
2006,02,14,05,41,-0.40
2006,02,14,05,42,-0.50
2006,02,14,05,43,-0.60
2006,02,14,05,44,-0.60
2006,02,14,05,45,-0.60
2006,02,14,05,46,-0.60
2006,02,14,05,47,-0.60
2006,02,14,05,48,-0.60
2006,02,14,05,49,-0.70
2006,02,14,05,50,-0.70
2006,02,14,05,51,-0.70
2006,02,14,05,52,-0.80
2006,02,14,05,53,-0.80
2006,02,14,05,54,-0.90
2006,02,14,05,55,-0.90
2006,02,14,05,56,-0.90
2006,02,14,05,57,-0.90
2006,02,14,05,58,-0.90
2006,02,14,05,59,-0.90
2006,02,14,06,00,-0.90
2006,02,14,06,01,-0.90
2006,02,14,06,02,-0.90
2006,02,14,06,03,-0.90
2006,02,14,06,04,-0.90
2006,02,14,06,05,-0.90
2006,02,14,06,06,-0.90
2006,02,14,06,07,-0.90
2006,02,14,06,08,-0.90
2006,02,14,06,09,-0.90
2006,02,14,06,10,-0.90
2006,02,14,06,11,-0.90
2006,02,14,06,12,-0.90
2006,02,14,06,13,-0.90
2006,02,14,06,14,-0.90
2006,02,14,06,15,-0.90
2006,02,14,06,16,-0.90
2006,02,14,06,17,-0.90
2006,02,14,06,18,-0.90
2006,02,14,06,19,-0.90
2006,02,14,06,20,-1.10
2006,02,14,06,21,-1.10
2006,02,14,06,22,-1.20
2006,02,14,06,23,-1.20
2006,02,14,06,24,-1.20
2006,02,14,06,25,-1.20
2006,02,14,06,26,-1.20
2006,02,14,06,27,-1.20
2006,02,14,06,28,-1.20
2006,02,14,06,29,-1.20
2006,02,14,06,30,-1.20
2006,02,14,06,31,-1.10
2006,02,14,06,32,-1.10
2006,02,14,06,33,-1.10
2006,02,14,06,34,-0.90
2006,02,14,06,35,-0.70
2006,02,14,06,36,-0.40
2006,02,14,06,37,0.00
2006,02,14,06,38,0.30
2006,02,14,06,39,0.70
2006,02,14,06,40,1.20
2006,02,14,06,41,1.30
2006,02,14,06,42,1.30
2006,02,14,06,43,1.30
2006,02,14,06,44,1.50
2006,02,14,06,45,2.20
2006,02,14,06,46,2.20
2006,02,14,06,47,2.50
2006,02,14,06,48,2.70
2006,02,14,06,49,2.70
2006,02,14,06,50,2.70
2006,02,14,06,51,2.80
2006,02,14,06,52,2.80
2006,02,14,06,53,2.90
2006,02,14,06,54,2.90
2006,02,14,06,55,3.00
2006,02,14,06,56,3.10
2006,02,14,06,57,3.10
2006,02,14,06,58,3.10
2006,02,14,06,59,3.10
2006,02,14,07,00,3.10
2006,02,14,07,01,3.10
2006,02,14,07,02,3.10
2006,02,14,07,03,3.10
2006,02,14,07,04,3.10
2006,02,14,07,05,3.00
2006,02,14,07,06,2.90
2006,02,14,07,07,3.00
2006,02,14,07,08,3.10
2006,02,14,07,09,3.10
2006,02,14,07,10,3.10
2006,02,14,07,11,3.10
2006,02,14,07,12,3.10
2006,02,14,07,13,3.10
2006,02,14,07,14,3.10
2006,02,14,07,15,3.10
2006,02,14,07,16,3.10
2006,02,14,07,17,3.10
2006,02,14,07,18,3.10
2006,02,14,07,19,3.10
2006,02,14,07,20,3.10
2006,02,14,07,21,3.10
2006,02,14,07,22,3.10
2006,02,14,07,23,3.10
2006,02,14,07,24,3.10
2006,02,14,07,25,3.10
2006,02,14,07,26,3.10
2006,02,14,07,27,3.10
2006,02,14,07,28,3.10
2006,02,14,07,29,3.10
2006,02,14,07,30,3.10
2006,02,14,07,31,3.00
2006,02,14,07,32,2.90
2006,02,14,07,33,2.90
2006,02,14,07,34,2.90
2006,02,14,07,35,2.90
2006,02,14,07,36,2.90
2006,02,14,07,37,2.90
2006,02,14,07,38,2.90
2006,02,14,07,39,2.90
2006,02,14,07,40,2.90
2006,02,14,07,41,2.90
2006,02,14,07,42,2.90
2006,02,14,07,43,2.90
2006,02,14,07,44,2.90
2006,02,14,07,45,2.90
2006,02,14,07,46,2.90
2006,02,14,07,47,2.90
2006,02,14,07,48,2.90
2006,02,14,07,49,2.90
2006,02,14,07,50,2.90
2006,02,14,07,51,2.80
2006,02,14,07,52,2.80
2006,02,14,07,53,2.80
2006,02,14,07,54,2.80
2006,02,14,07,55,2.80
2006,02,14,07,56,2.80
2006,02,14,07,57,2.80
2006,02,14,07,58,2.70
2006,02,14,07,59,2.70
2006,02,14,08,00,2.80
2006,02,14,08,01,2.80
2006,02,14,08,02,2.70
2006,02,14,08,03,2.70
2006,02,14,08,04,2.80
2006,02,14,08,05,2.80
2006,02,14,08,06,2.80
2006,02,14,08,07,2.80
2006,02,14,08,08,2.80
2006,02,14,08,09,2.70
2006,02,14,08,10,2.70
2006,02,14,08,11,2.70
2006,02,14,08,12,2.70
2006,02,14,08,13,2.70
2006,02,14,08,14,2.70
2006,02,14,08,15,2.70
2006,02,14,08,16,2.70
2006,02,14,08,17,2.70
2006,02,14,08,18,2.70
2006,02,14,08,19,2.70
2006,02,14,08,20,2.70
2006,02,14,08,21,2.70
2006,02,14,08,22,2.70
2006,02,14,08,23,2.70
2006,02,14,08,24,2.70
2006,02,14,08,25,2.70
2006,02,14,08,26,2.80
2006,02,14,08,27,2.80
2006,02,14,08,28,2.80
2006,02,14,08,29,2.80
2006,02,14,08,30,2.90
2006,02,14,08,31,2.90
2006,02,14,08,32,2.90
2006,02,14,08,33,3.10
2006,02,14,08,34,3.10
2006,02,14,08,35,3.10
2006,02,14,08,36,3.10
2006,02,14,08,37,3.10
2006,02,14,08,38,3.10
2006,02,14,08,39,3.20
2006,02,14,08,40,3.20
2006,02,14,08,41,3.20
2006,02,14,08,42,3.30
2006,02,14,08,43,3.30
2006,02,14,08,44,3.30
2006,02,14,08,45,3.30
2006,02,14,08,46,3.30
2006,02,14,08,47,3.40
2006,02,14,08,48,3.40
2006,02,14,08,49,3.40
2006,02,14,08,50,3.50
2006,02,14,08,51,3.50
2006,02,14,08,52,3.60
2006,02,14,08,53,3.70
2006,02,14,08,54,3.70
2006,02,14,08,55,3.80
2006,02,14,08,56,3.80
2006,02,14,08,57,3.80
2006,02,14,08,58,3.90
2006,02,14,08,59,3.90
2006,02,14,09,00,4.00
2006,02,14,09,01,4.00
2006,02,14,09,02,4.10
2006,02,14,09,03,4.10
2006,02,14,09,04,4.20
2006,02,14,09,05,4.20
2006,02,14,09,06,4.20
2006,02,14,09,07,4.20
2006,02,14,09,08,4.20
2006,02,14,09,09,4.20
2006,02,14,09,10,4.20
2006,02,14,09,11,4.20
2006,02,14,09,12,4.20
2006,02,14,09,13,4.20
2006,02,14,09,14,4.20
2006,02,14,09,15,4.20
2006,02,14,09,16,4.20
2006,02,14,09,17,4.20
2006,02,14,09,18,4.20
2006,02,14,09,19,4.20
2006,02,14,09,20,4.20
2006,02,14,09,21,4.20
2006,02,14,09,22,4.20
2006,02,14,09,23,4.20
2006,02,14,09,24,4.20
2006,02,14,09,25,4.30
2006,02,14,09,26,4.30
2006,02,14,09,27,4.30
2006,02,14,09,28,4.40
2006,02,14,09,29,4.40
2006,02,14,09,30,4.40
2006,02,14,09,31,4.40
2006,02,14,09,32,4.50
2006,02,14,09,33,4.50
2006,02,14,09,34,4.50
2006,02,14,09,35,4.50
2006,02,14,09,36,4.60
2006,02,14,09,37,4.60
2006,02,14,09,38,4.60
2006,02,14,09,39,4.60
2006,02,14,09,40,4.60
2006,02,14,09,41,4.60
2006,02,14,09,42,4.60
2006,02,14,09,43,4.70
2006,02,14,09,44,4.70
2006,02,14,09,45,4.70
2006,02,14,09,46,4.60
2006,02,14,09,47,4.60
2006,02,14,09,48,4.60
2006,02,14,09,49,4.60
2006,02,14,09,50,4.70
2006,02,14,09,51,4.70
2006,02,14,09,52,4.80
2006,02,14,09,53,4.80
2006,02,14,09,54,4.80
2006,02,14,09,55,4.80
2006,02,14,09,56,4.80
2006,02,14,09,57,4.80
2006,02,14,09,58,4.80
2006,02,14,09,59,4.80
2006,02,14,10,00,4.90
2006,02,14,10,01,4.90
2006,02,14,10,02,4.90
2006,02,14,10,03,5.00
2006,02,14,10,04,5.00
2006,02,14,10,05,4.90
2006,02,14,10,06,4.80
2006,02,14,10,07,4.80
2006,02,14,10,08,4.80
2006,02,14,10,09,4.80
2006,02,14,10,10,4.80
2006,02,14,10,11,4.70
2006,02,14,10,12,4.60
2006,02,14,10,13,4.60
2006,02,14,10,14,4.60
2006,02,14,10,15,4.60
2006,02,14,10,16,4.60
2006,02,14,10,17,4.60
2006,02,14,10,18,4.60
2006,02,14,10,19,4.50
2006,02,14,10,20,4.50
2006,02,14,10,21,4.50
2006,02,14,10,22,4.50
2006,02,14,10,23,4.50
2006,02,14,10,24,4.50
2006,02,14,10,25,4.50
2006,02,14,10,26,4.50
2006,02,14,10,27,4.50
2006,02,14,10,28,4.60
2006,02,14,10,29,4.60
2006,02,14,10,30,4.60
2006,02,14,10,31,4.60
2006,02,14,10,32,4.60
2006,02,14,10,33,4.60
2006,02,14,10,34,4.60
2006,02,14,10,35,4.60
2006,02,14,10,36,4.60
2006,02,14,10,37,4.60
2006,02,14,10,38,4.60
2006,02,14,10,39,4.60
2006,02,14,10,40,4.60
2006,02,14,10,41,4.50
2006,02,14,10,42,4.50
2006,02,14,10,43,4.50
2006,02,14,10,44,4.50
2006,02,14,10,45,4.50
2006,02,14,10,46,4.50
2006,02,14,10,47,4.50
2006,02,14,10,48,4.50
2006,02,14,10,49,4.50
2006,02,14,10,50,4.60
2006,02,14,10,51,4.60
2006,02,14,10,52,4.60
2006,02,14,10,53,4.60
2006,02,14,10,54,4.60
2006,02,14,10,55,4.60
2006,02,14,10,56,4.60
2006,02,14,10,57,4.60
2006,02,14,10,58,4.60
2006,02,14,10,59,4.70
2006,02,14,11,00,4.70
2006,02,14,11,01,4.80
2006,02,14,11,02,4.90
2006,02,14,11,03,5.00
2006,02,14,11,04,5.10
2006,02,14,11,05,5.20
2006,02,14,11,06,5.30
2006,02,14,11,07,5.30
2006,02,14,11,08,5.30
2006,02,14,11,09,5.30
2006,02,14,11,10,5.30
2006,02,14,11,11,5.30
2006,02,14,11,12,5.30
2006,02,14,11,13,5.30
2006,02,14,11,14,5.20
2006,02,14,11,15,5.20
2006,02,14,11,16,5.10
2006,02,14,11,17,5.10
2006,02,14,11,18,5.10
2006,02,14,11,19,5.00
2006,02,14,11,20,4.90
2006,02,14,11,21,4.90
2006,02,14,11,22,5.00
2006,02,14,11,23,5.10
2006,02,14,11,24,5.10
2006,02,14,11,25,5.10
2006,02,14,11,26,5.10
2006,02,14,11,27,5.10
2006,02,14,11,28,5.20
2006,02,14,11,29,5.20
2006,02,14,11,30,5.30
2006,02,14,11,31,5.30
2006,02,14,11,32,5.30
2006,02,14,11,33,5.40
2006,02,14,11,34,5.50
2006,02,14,11,35,5.50
2006,02,14,11,36,5.40
2006,02,14,11,37,5.40
2006,02,14,11,38,5.50
2006,02,14,11,39,5.60
2006,02,14,11,40,5.70
2006,02,14,11,41,5.60
2006,02,14,11,42,5.60
2006,02,14,11,43,5.60
2006,02,14,11,44,5.60
2006,02,14,11,45,5.60
2006,02,14,11,46,5.60
2006,02,14,11,47,5.50
2006,02,14,11,48,5.50
2006,02,14,11,49,5.40
2006,02,14,11,50,5.30
2006,02,14,11,51,5.30
2006,02,14,11,52,5.30
2006,02,14,11,53,5.20
2006,02,14,11,54,5.20
2006,02,14,11,55,5.20
2006,02,14,11,56,5.20
2006,02,14,11,57,5.20
2006,02,14,11,58,5.10
2006,02,14,11,59,5.10
2006,02,14,12,00,5.10
2006,02,14,12,01,5.10
2006,02,14,12,02,5.10
2006,02,14,12,03,5.10
2006,02,14,12,04,5.10
2006,02,14,12,05,5.10
2006,02,14,12,06,5.10
2006,02,14,12,07,5.10
2006,02,14,12,08,5.20
2006,02,14,12,09,5.20
2006,02,14,12,10,5.20
2006,02,14,12,11,5.10
2006,02,14,12,12,5.10
2006,02,14,12,13,5.00
2006,02,14,12,14,4.90
2006,02,14,12,15,4.90
2006,02,14,12,16,4.90
2006,02,14,12,17,4.90
2006,02,14,12,18,4.90
2006,02,14,12,19,4.90
2006,02,14,12,20,4.90
2006,02,14,12,21,5.00
2006,02,14,12,22,5.10
2006,02,14,12,23,5.10
2006,02,14,12,24,5.10
2006,02,14,12,25,5.20
2006,02,14,12,26,5.20
2006,02,14,12,27,5.30
2006,02,14,12,28,5.30
2006,02,14,12,29,5.30
2006,02,14,12,30,5.40
2006,02,14,12,31,5.50
2006,02,14,12,32,5.60
2006,02,14,12,33,5.70
2006,02,14,12,34,5.70
2006,02,14,12,35,5.70
2006,02,14,12,36,5.80
2006,02,14,12,37,5.80
2006,02,14,12,38,5.90
2006,02,14,12,39,5.90
2006,02,14,12,40,5.90
2006,02,14,12,41,6.00
2006,02,14,12,42,5.90
2006,02,14,12,43,5.80
2006,02,14,12,44,5.70
2006,02,14,12,45,5.70
2006,02,14,12,46,5.70
2006,02,14,12,47,5.70
2006,02,14,12,48,5.70
2006,02,14,12,49,5.70
2006,02,14,12,50,5.70
2006,02,14,12,51,5.70
2006,02,14,12,52,5.70
2006,02,14,12,53,5.70
2006,02,14,12,54,5.70
2006,02,14,12,55,5.70
2006,02,14,12,56,5.80
2006,02,14,12,57,5.80
2006,02,14,12,58,5.90
2006,02,14,12,59,5.90
2006,02,14,13,00,5.90
2006,02,14,13,01,5.90
2006,02,14,13,02,5.90
2006,02,14,13,03,6.00
2006,02,14,13,04,6.10
2006,02,14,13,05,6.10
2006,02,14,13,06,6.20
2006,02,14,13,07,6.20
2006,02,14,13,08,6.20
2006,02,14,13,09,6.20
2006,02,14,13,10,6.10
2006,02,14,13,11,6.10
2006,02,14,13,12,6.10
2006,02,14,13,13,6.10
2006,02,14,13,14,6.00
2006,02,14,13,15,6.00
2006,02,14,13,16,6.10
2006,02,14,13,17,6.20
2006,02,14,13,18,6.20
2006,02,14,13,19,6.20
2006,02,14,13,20,6.20
2006,02,14,13,21,6.20
2006,02,14,13,22,6.20
2006,02,14,13,23,6.10
2006,02,14,13,24,6.00
2006,02,14,13,25,6.00
2006,02,14,13,26,5.90
2006,02,14,13,27,5.90
2006,02,14,13,28,5.90
2006,02,14,13,29,5.90
2006,02,14,13,30,5.90
2006,02,14,13,31,6.00
2006,02,14,13,32,6.00
2006,02,14,13,33,6.10
2006,02,14,13,34,6.20
2006,02,14,13,35,6.20
2006,02,14,13,36,6.10
2006,02,14,13,37,6.10
2006,02,14,13,38,6.10
2006,02,14,13,39,6.10
2006,02,14,13,40,6.00
2006,02,14,13,41,6.00
2006,02,14,13,42,6.00
2006,02,14,13,43,6.00
2006,02,14,13,44,6.00
2006,02,14,13,45,6.00
2006,02,14,13,46,6.00
2006,02,14,13,47,6.00
2006,02,14,13,48,6.00
2006,02,14,13,49,6.10
2006,02,14,13,50,6.10
2006,02,14,13,51,6.20
2006,02,14,13,52,6.20
2006,02,14,13,53,6.20
2006,02,14,13,54,6.20
2006,02,14,13,55,6.40
2006,02,14,13,56,6.40
2006,02,14,13,57,6.40
2006,02,14,13,58,6.40
2006,02,14,13,59,6.40
2006,02,14,14,00,6.40
2006,02,14,14,01,6.40
2006,02,14,14,02,6.40
2006,02,14,14,03,6.40
2006,02,14,14,04,6.40
2006,02,14,14,05,6.40
2006,02,14,14,06,6.40
2006,02,14,14,07,6.40
2006,02,14,14,08,6.50
2006,02,14,14,09,6.60
2006,02,14,14,10,6.60
2006,02,14,14,11,6.60
2006,02,14,14,12,6.60
2006,02,14,14,13,6.70
2006,02,14,14,14,6.70
2006,02,14,14,15,6.70
2006,02,14,14,16,6.70
2006,02,14,14,17,6.80
2006,02,14,14,18,6.80
2006,02,14,14,19,6.80
2006,02,14,14,20,6.80
2006,02,14,14,21,6.90
2006,02,14,14,22,6.90
2006,02,14,14,23,6.90
2006,02,14,14,24,6.90
2006,02,14,14,25,6.80
2006,02,14,14,26,6.80
2006,02,14,14,27,6.80
2006,02,14,14,28,6.80
2006,02,14,14,29,6.80
2006,02,14,14,30,6.80
2006,02,14,14,31,6.90
2006,02,14,14,32,6.90
2006,02,14,14,33,7.00
2006,02,14,14,34,7.00
2006,02,14,14,35,6.90
2006,02,14,14,36,6.90
2006,02,14,14,37,6.80
2006,02,14,14,38,6.80
2006,02,14,14,39,6.80
2006,02,14,14,40,6.80
2006,02,14,14,41,6.90
2006,02,14,14,42,6.90
2006,02,14,14,43,6.90
2006,02,14,14,44,6.80
2006,02,14,14,45,6.80
2006,02,14,14,46,6.70
2006,02,14,14,47,6.70
2006,02,14,14,48,6.70
2006,02,14,14,49,6.70
2006,02,14,14,50,6.80
2006,02,14,14,51,6.80
2006,02,14,14,52,6.80
2006,02,14,14,53,6.80
2006,02,14,14,54,6.80
2006,02,14,14,55,6.90
2006,02,14,14,56,6.90
2006,02,14,14,57,7.00
2006,02,14,14,58,7.00
2006,02,14,14,59,7.00
2006,02,14,15,00,6.90
2006,02,14,15,01,7.00
2006,02,14,15,02,7.00
2006,02,14,15,03,7.00
2006,02,14,15,04,7.00
2006,02,14,15,05,6.90
2006,02,14,15,06,6.90
2006,02,14,15,07,6.80
2006,02,14,15,08,6.80
2006,02,14,15,09,6.80
2006,02,14,15,10,6.80
2006,02,14,15,11,6.80
2006,02,14,15,12,6.80
2006,02,14,15,13,6.80
2006,02,14,15,14,6.80
2006,02,14,15,15,6.80
2006,02,14,15,16,6.80
2006,02,14,15,17,6.90
2006,02,14,15,18,6.90
2006,02,14,15,19,6.80
2006,02,14,15,20,6.80
2006,02,14,15,21,6.80
2006,02,14,15,22,6.80
2006,02,14,15,23,6.80
2006,02,14,15,24,6.80
2006,02,14,15,25,6.80
2006,02,14,15,26,6.80
2006,02,14,15,27,6.80
2006,02,14,15,28,6.80
2006,02,14,15,29,6.80
2006,02,14,15,30,6.80
2006,02,14,15,31,6.80
2006,02,14,15,32,6.80
2006,02,14,15,33,6.70
2006,02,14,15,34,6.70
2006,02,14,15,35,6.70
2006,02,14,15,36,6.70
2006,02,14,15,37,6.70
2006,02,14,15,38,6.70
2006,02,14,15,39,6.80
2006,02,14,15,40,6.80
2006,02,14,15,41,6.70
2006,02,14,15,42,6.60
2006,02,14,15,43,6.60
2006,02,14,15,44,6.60
2006,02,14,15,45,6.60
2006,02,14,15,46,6.60
2006,02,14,15,47,6.60
2006,02,14,15,48,6.60
2006,02,14,15,49,6.60
2006,02,14,15,50,6.60
2006,02,14,15,51,6.60
2006,02,14,15,52,6.60
2006,02,14,15,53,6.60
2006,02,14,15,54,6.50
2006,02,14,15,55,6.40
2006,02,14,15,56,6.40
2006,02,14,15,57,6.40
2006,02,14,15,58,6.40
2006,02,14,15,59,6.40
2006,02,14,16,00,6.40
2006,02,14,16,01,6.40
2006,02,14,16,02,6.40
2006,02,14,16,03,6.40
2006,02,14,16,04,6.40
2006,02,14,16,05,6.40
2006,02,14,16,06,6.40
2006,02,14,16,07,6.40
2006,02,14,16,08,6.40
2006,02,14,16,09,6.40
2006,02,14,16,10,6.40
2006,02,14,16,11,6.30
2006,02,14,16,12,6.30
2006,02,14,16,13,6.30
2006,02,14,16,14,6.30
2006,02,14,16,15,6.30
2006,02,14,16,16,6.30
2006,02,14,16,17,6.30
2006,02,14,16,18,6.30
2006,02,14,16,19,6.30
2006,02,14,16,20,6.20
2006,02,14,16,21,6.20
2006,02,14,16,22,6.20
2006,02,14,16,23,6.20
2006,02,14,16,24,6.20
2006,02,14,16,25,6.20
2006,02,14,16,26,6.20
2006,02,14,16,27,6.20
2006,02,14,16,28,6.10
2006,02,14,16,29,6.10
2006,02,14,16,30,6.10
2006,02,14,16,31,6.10
2006,02,14,16,32,6.10
2006,02,14,16,33,6.10
2006,02,14,16,34,6.10
2006,02,14,16,35,6.10
2006,02,14,16,36,6.10
2006,02,14,16,37,6.00
2006,02,14,16,38,6.00
2006,02,14,16,39,6.00
2006,02,14,16,40,6.00
2006,02,14,16,41,6.00
2006,02,14,16,42,6.00
2006,02,14,16,43,6.00
2006,02,14,16,44,6.00
2006,02,14,16,45,6.00
2006,02,14,16,46,5.90
2006,02,14,16,47,5.90
2006,02,14,16,48,5.90
2006,02,14,16,49,5.90
2006,02,14,16,50,5.90
2006,02,14,16,51,5.90
2006,02,14,16,52,5.90
2006,02,14,16,53,5.80
2006,02,14,16,54,5.80
2006,02,14,16,55,5.80
2006,02,14,16,56,5.80
2006,02,14,16,57,5.80
2006,02,14,16,58,5.80
2006,02,14,16,59,5.70
2006,02,14,17,00,5.70
2006,02,14,17,01,5.70
2006,02,14,17,02,5.70
2006,02,14,17,03,5.70
2006,02,14,17,04,5.70
2006,02,14,17,05,5.70
2006,02,14,17,06,5.70
2006,02,14,17,07,5.70
2006,02,14,17,08,5.70
2006,02,14,17,09,5.70
2006,02,14,17,10,5.70
2006,02,14,17,11,5.70
2006,02,14,17,12,5.60
2006,02,14,17,13,5.60
2006,02,14,17,14,5.60
2006,02,14,17,15,5.60
2006,02,14,17,16,5.50
2006,02,14,17,17,5.50
2006,02,14,17,18,5.50
2006,02,14,17,19,5.50
2006,02,14,17,20,5.50
2006,02,14,17,21,5.50
2006,02,14,17,22,5.50
2006,02,14,17,23,5.50
2006,02,14,17,24,5.50
2006,02,14,17,25,5.50
2006,02,14,17,26,5.40
2006,02,14,17,27,5.40
2006,02,14,17,28,5.40
2006,02,14,17,29,5.40
2006,02,14,17,30,5.40
2006,02,14,17,31,5.40
2006,02,14,17,32,5.40
2006,02,14,17,33,5.40
2006,02,14,17,34,5.30
2006,02,14,17,35,5.30
2006,02,14,17,36,5.30
2006,02,14,17,37,5.30
2006,02,14,17,38,5.30
2006,02,14,17,39,5.30
2006,02,14,17,40,5.30
2006,02,14,17,41,5.30
2006,02,14,17,42,5.30
2006,02,14,17,43,5.30
2006,02,14,17,44,5.30
2006,02,14,17,45,5.30
2006,02,14,17,46,5.30
2006,02,14,17,47,5.30
2006,02,14,17,48,5.30
2006,02,14,17,49,5.30
2006,02,14,17,50,5.30
2006,02,14,17,51,5.30
2006,02,14,17,52,5.30
2006,02,14,17,53,5.30
2006,02,14,17,54,5.30
2006,02,14,17,55,5.30
2006,02,14,17,56,5.30
2006,02,14,17,57,5.30
2006,02,14,17,58,5.30
2006,02,14,17,59,5.30
2006,02,14,18,00,5.30
2006,02,14,18,01,5.30
2006,02,14,18,02,5.30
2006,02,14,18,03,5.20
2006,02,14,18,04,5.20
2006,02,14,18,05,5.20
2006,02,14,18,06,5.20
2006,02,14,18,07,5.20
2006,02,14,18,08,5.10
2006,02,14,18,09,5.10
2006,02,14,18,10,5.10
2006,02,14,18,11,5.10
2006,02,14,18,12,5.20
2006,02,14,18,13,5.10
2006,02,14,18,14,5.10
2006,02,14,18,15,5.10
2006,02,14,18,16,5.20
2006,02,14,18,17,5.20
2006,02,14,18,18,5.20
2006,02,14,18,19,5.20
2006,02,14,18,20,5.10
2006,02,14,18,21,5.20
2006,02,14,18,22,5.20
2006,02,14,18,23,5.20
2006,02,14,18,24,5.30
2006,02,14,18,25,5.30
2006,02,14,18,26,5.30
2006,02,14,18,27,5.30
2006,02,14,18,28,5.30
2006,02,14,18,29,5.30
2006,02,14,18,30,5.30
2006,02,14,18,31,5.30
2006,02,14,18,32,5.30
2006,02,14,18,33,5.30
2006,02,14,18,34,5.30
2006,02,14,18,35,5.30
2006,02,14,18,36,5.30
2006,02,14,18,37,5.30
2006,02,14,18,38,5.30
2006,02,14,18,39,5.30
2006,02,14,18,40,5.30
2006,02,14,18,41,5.30
2006,02,14,18,42,5.30
2006,02,14,18,43,5.30
2006,02,14,18,44,5.30
2006,02,14,18,45,5.30
2006,02,14,18,46,5.30
2006,02,14,18,47,5.30
2006,02,14,18,48,5.30
2006,02,14,18,49,5.30
2006,02,14,18,50,5.30
2006,02,14,18,51,5.30
2006,02,14,18,52,5.30
2006,02,14,18,53,5.30
2006,02,14,18,54,5.30
2006,02,14,18,55,5.30
2006,02,14,18,56,5.30
2006,02,14,18,57,5.30
2006,02,14,18,58,5.30
2006,02,14,18,59,5.30
2006,02,14,19,00,5.30
2006,02,14,19,01,5.20
2006,02,14,19,02,5.20
2006,02,14,19,03,5.20
2006,02,14,19,04,5.20
2006,02,14,19,05,5.20
2006,02,14,19,06,5.20
2006,02,14,19,07,5.20
2006,02,14,19,08,5.20
2006,02,14,19,09,5.20
2006,02,14,19,10,5.20
2006,02,14,19,11,5.20
2006,02,14,19,12,5.20
2006,02,14,19,13,5.20
2006,02,14,19,14,5.20
2006,02,14,19,15,5.20
2006,02,14,19,16,5.20
2006,02,14,19,17,5.20
2006,02,14,19,18,5.20
2006,02,14,19,19,5.20
2006,02,14,19,20,5.20
2006,02,14,19,21,5.20
2006,02,14,19,22,5.20
2006,02,14,19,23,5.10
2006,02,14,19,24,5.10
2006,02,14,19,25,5.10
2006,02,14,19,26,5.10
2006,02,14,19,27,5.10
2006,02,14,19,28,5.10
2006,02,14,19,29,5.10
2006,02,14,19,30,5.10
2006,02,14,19,31,5.10
2006,02,14,19,32,5.10
2006,02,14,19,33,5.10
2006,02,14,19,34,5.10
2006,02,14,19,35,5.10
2006,02,14,19,36,5.10
2006,02,14,19,37,5.10
2006,02,14,19,38,5.10
2006,02,14,19,39,5.10
2006,02,14,19,40,5.10
2006,02,14,19,41,5.10
2006,02,14,19,42,5.10
2006,02,14,19,43,5.10
2006,02,14,19,44,5.10
2006,02,14,19,45,5.10
2006,02,14,19,46,5.10
2006,02,14,19,47,5.10
2006,02,14,19,48,5.10
2006,02,14,19,49,5.10
2006,02,14,19,50,5.10
2006,02,14,19,51,5.10
2006,02,14,19,52,5.10
2006,02,14,19,53,5.10
2006,02,14,19,54,5.10
2006,02,14,19,55,5.10
2006,02,14,19,56,5.10
2006,02,14,19,57,5.10
2006,02,14,19,58,5.10